User: anonymous   Login
Location: ??
(34.9170°N, 135.5016°E)
Time: 14:27:41
(UTC+00:00)
Language:

SJ-6F - Orbit

View from above orbital plane
View from above orbital plane
View from above satellite
View from above satellite

Ground track
Ground track

The orbit data is extracted from the following two-line orbital elements,

1 33409U 08053B   21020.04528036  .00000639  00000-0  63595-4 0  9998
2 33409  97.7749   1.5562 0017163 140.7260 219.5202 14.95040580667131
Epoch (UTC): 20 January 2021 01:05:12
Eccentricity: 0.0017163
inclination: 97.7749°
perigee height: 570 km
apogee height: 594 km
right ascension of ascending node: 1.5562°
argument of perigee: 140.7260°
revolutions per day: 14.95040580
mean anomaly at epoch: 219.5202°
orbit number at epoch: 66713

The dashed part of the orbit path shows where the satellite is in the earth's shadow,  

DLR